User: anonymous   Login
Location: Houston
(29.7630°N, 95.3630°W)
Time: 03:43:30
(UTC-05:00)
Language:

ISS - Orbit

View from above orbital plane
View from above orbital plane
View from above satellite
View from above satellite

Ground track
Ground track

The orbit data is extracted from the following two-line orbital elements,

1 25544U 98067A   14298.11772632  .00021240  00000-0  36795-3 0  2976
2 25544 051.6457 175.5213 0002326 298.2701 187.0085 15.50849095911484
Epoch (UTC): 25 October 2014 02:49:31
Eccentricity: 0.0002326
inclination: 51.6457°
perigee height: 412 km
apogee height: 416 km
right ascension of ascending node: 175.5213°
argument of perigee: 298.2701°
revolutions per day: 15.50849095
mean anomaly at epoch: 187.0085°
orbit number at epoch: 91148

The dashed part of the orbit path shows where the satellite is in the earth's shadow,  

DLR